This demonstration page uses our WeatherBlox Daily Observations layout. Learn more.

Left ArrowRight Arrow

39.08367, -84.50855

Hourly Observations for June 16, 2020

Temp ( °F °C ) Dew Point ( °F °C ) Humidity (%) Winds ( mph kmh ) Pressure ( in mb ) Visibility ( mi km ) Precip ( " mm )
12:53 am 00:53 Clear 60 15.6 57 13.9 90 90 Calm 30.29 1026 10 16.0934 0 0
1:53 am 01:53 Clear 58 14.4 57 13.9 97 97 Calm 30.29 1026 10 16.0934 0 0
2:53 am 02:53 Clear 58 14.4 57 13.9 97 97 Calm 30.3 1026 9 14.48406 0 0
3:53 am 03:53 Clear 57 13.9 56 13.3 96 96 NE 3 6 30.3 1026 7 11.26538 0 0
4:53 am 04:53 Clear 56 13.3 55 12.8 97 97 Calm 30.3 1026 8 12.87472 0 0
5:50 am 05:50 Clear with Mist and Fog 55 13 54 12 94 94 NE 3 6 30.32 1027 1.75 2.816345 0 0
5:53 am 05:53 Clear with Mist and Fog 54 12.2 54 12.2 100 100 Calm 30.31 1026 1.25 2.011675 0 0
6:00 am 06:00 Clear with Mist and Fog 54 12.2 54 12.2 100 100 E 3 6 30.32 1027 3 4.82802 0 0
6:32 am 06:32 Sunny with Mist and Fog 54 12.2 53 11.7 97 97 Calm 30.34 1028 2.5 4.02335 0 0
6:42 am 06:42 Sunny with Mist and Fog 55 12.8 54 12.2 96 96 Calm 30.34 1027 5 8.0467 0 0
6:50 am 06:50 Partly Cloudy 54 12 54 12 100 100 Calm 30.34 1028 10 16.0934 0 0
6:53 am 06:53 Partly Cloudy 55 12.8 54 12.2 96 96 NE 3 6 30.33 1027 10 16.0934 0 0
7:53 am 07:53 Sunny 60 15.6 58 14.4 93 93 NNE 3 6 30.34 1027 10 16.0934 0 0
8:53 am 08:53 Sunny 66 18.9 57 13.9 73 73 Calm 30.35 1028 10 16.0934 0 0
9:53 am 09:53 Sunny 68 20 56 13.3 65 65 Calm 30.35 1028 10 16.0934 0 0
10:53 am 10:53 Sunny 73 22.8 56 13.3 55 55 NNE 5 7 30.34 1027 10 16.0934 0 0
11:53 am 11:53 Sunny 77 25 57 13.9 50 50 N 6 9 30.33 1027 10 16.0934 0 0
12:53 pm 12:53 Partly Cloudy 77 25 56 13.3 48 48 ENE 13 20 30.31 1026 10 16.0934 0 0
1:53 pm 13:53 Partly Cloudy 78 25.6 56 13.3 47 47 ENE 6 9 30.29 1026 10 16.0934 0 0
2:53 pm 14:53 Partly Cloudy 79 26.1 52 11.1 39 39 E 10 17 30.27 1025 10 16.0934 0 0
3:53 pm 15:53 Sunny 78 25.6 52 11.1 40 40 ENE 12 19 30.25 1024 10 16.0934 0 0
4:53 pm 16:53 Sunny 78 25.6 52 11.1 40 40 E 8 13 30.23 1024 10 16.0934 0 0
5:53 pm 17:53 Sunny 81 27.2 53 11.7 38 38 NE 9 15 30.21 1023 10 16.0934 0 0
6:53 pm 18:53 Sunny 79 26.1 51 10.6 38 38 ENE 6 9 30.19 1023 10 16.0934 0 0
7:53 pm 19:53 Sunny 77 25 51 10.6 40 40 E 7 11 30.19 1022 10 16.0934 0 0
8:53 pm 20:53 Sunny 74 23.3 52 11.1 46 46 Calm 30.19 1023 10 16.0934 0 0
9:53 pm 21:53 Clear 68 20 55 12.8 63 63 Calm 30.21 1023 10 16.0934 0 0
10:53 pm 22:53 Clear 64 17.8 57 13.9 78 78 Calm 30.22 1023 10 16.0934 0 0
11:53 pm 23:53 Clear 62 16.7 56 13.3 80 80 Calm 30.21 1023 10 16.0934 0 0

Powered by AerisWeather